Weather History for Lexington, KY

Change the Weather History Date:

Saturday, June 29, 2013

  Actual Average Record
Temperature  
Mean Temperature 74 °F 76 °F  
Max Temperature 83 °F 86 °F 104 °F (1936)
Min Temperature 64 °F 66 °F 50 °F (1923)
Degree Days  
Heating Degree Days 0 0  
Month to date heating degree days 0 8  
Since 1 June heating degree days 0 8  
Since 1 July heating degree days 4667 4608  
Cooling Degree Days 9 11  
Month to date cooling degree days 262 231  
Year to date cooling degree days 415 338  
Since 1 June cooling degree days 262 231  
Growing Degree Days 23 (Base 50)    
Moisture  
Dew Point 63 °F    
Average Humidity 74    
Maximum Humidity 93    
Minimum Humidity 54    
Precipitation  
Precipitation 0.63 in 0.12 in 5.04 in (1998)
Month to date precipitation 7.54 4.30  
Year to date precipitation 29.40 23.63  
Snow  
Snow 0.00 in 0.00 in - ()
Month to date snowfall 0.0 0.0  
Since 1 June snowfall 0.0 0.0  
Since 1 July snowfall 12.5 13.0  
Snow Depth 0.00 in    
Sea Level Pressure  
Sea Level Pressure 29.64 in    
Wind  
Wind Speed 7 mph (SW)    
Max Wind Speed 23 mph    
Max Gust Speed 28 mph    
Visibility 8 miles    
Events Rain    
T = Trace of Precipitation, MM = Missing Value Source: NWS Daily Summary

Daily Weather History Graph

Daily Weather History Graph

Search for Another Location

Airport:

Trip Planner

Search our weather history database for the weather conditions in past years. The results will help you decide how hot, cold, wet, or windy it might be!

Date:

Astronomy

Jun. 29, 2013 Rise Set
Actual Time 6:18 AM EDT 9:05 PM EDT
Civil Twilight 5:47 AM EDT 9:36 PM EDT
Nautical Twilight 5:07 AM EDT 10:15 PM EDT
Astronomical Twilight 4:23 AM EDT 11:00 PM EDT
Moon 12:40 AM EDT 1:22 PM EDT
Length of Visible Light 15h 49m
Length of Day
14h 46m
Waning Gibbous, 56% of the Moon is Illuminated
Jun 29
Waning Gibbous
Jun 30
Last Quarter
Jul 8
New
Jul 15
First Quarter
Jul 22
Full

Hourly Weather History & Observations

Time (EDT) Temp. Heat Index Dew Point Humidity Pressure Visibility Wind Dir Wind Speed Gust Speed Precip Events Conditions
12:54 AM 68.0 °F - 61.0 °F 78% 29.64 in 10.0 mi Calm Calm - N/A   Clear
1:54 AM 64.9 °F - 61.0 °F 87% 29.62 in 10.0 mi South 3.5 mph - N/A   Clear
2:54 AM 64.9 °F - 61.0 °F 87% 29.61 in 10.0 mi SW 4.6 mph - N/A   Clear
3:54 AM 64.9 °F - 61.0 °F 87% 29.61 in 10.0 mi WSW 3.5 mph - N/A   Clear
4:54 AM 64.0 °F - 61.0 °F 90% 29.61 in 10.0 mi South 4.6 mph - N/A   Clear
5:54 AM 64.9 °F - 61.0 °F 87% 29.62 in 10.0 mi Calm Calm - N/A   Overcast
6:54 AM 64.9 °F - 62.1 °F 90% 29.63 in 10.0 mi SSW 3.5 mph - N/A   Overcast
7:54 AM 66.9 °F - 62.1 °F 84% 29.64 in 10.0 mi SW 5.8 mph - N/A   Partly Cloudy
8:54 AM 72.0 °F - 63.0 °F 73% 29.64 in 10.0 mi WSW 8.1 mph - N/A   Clear
9:54 AM 75.0 °F - 63.0 °F 66% 29.64 in 10.0 mi West 8.1 mph - N/A   Clear
10:54 AM 77.0 °F - 63.0 °F 62% 29.63 in 10.0 mi West 9.2 mph - N/A   Clear
11:54 AM 77.0 °F - 63.0 °F 62% 29.64 in 10.0 mi SW 4.6 mph - N/A   Mostly Cloudy
12:54 PM 79.0 °F - 64.0 °F 60% 29.63 in 10.0 mi SSW 11.5 mph - N/A   Mostly Cloudy
1:54 PM 79.0 °F - 62.1 °F 56% 29.62 in 10.0 mi SW 10.4 mph - N/A   Mostly Cloudy
2:54 PM 81.0 °F 82.2 °F 63.0 °F 54% 29.61 in 10.0 mi West 10.4 mph - N/A   Mostly Cloudy
3:54 PM 81.0 °F 82.5 °F 64.0 °F 56% 29.61 in 10.0 mi SW 11.5 mph 19.6 mph N/A   Mostly Cloudy
4:54 PM 80.1 °F 81.7 °F 64.0 °F 58% 29.61 in 10.0 mi WSW 8.1 mph - N/A   Mostly Cloudy
5:54 PM 79.0 °F - 62.1 °F 56% 29.61 in 10.0 mi WSW 9.2 mph 18.4 mph N/A   Mostly Cloudy
6:54 PM 78.1 °F - 63.0 °F 60% 29.61 in 10.0 mi SW 5.8 mph - N/A   Partly Cloudy
7:54 PM 73.9 °F - 64.9 °F 73% 29.62 in 10.0 mi North 8.1 mph - N/A   Mostly Cloudy
8:54 PM 68.0 °F - 64.9 °F 90% 29.65 in 2.5 mi NNW 19.6 mph 27.6 mph 0.02 in Rain Heavy Rain
8:57 PM 68.0 °F - 64.4 °F 88% 29.68 in 1.0 mi NNW 18.4 mph 27.6 mph 0.03 in Rain Heavy Rain
9:00 PM 66.2 °F - 64.4 °F 94% 29.69 in 0.8 mi NNE 12.7 mph 27.6 mph 0.15 in Rain Heavy Rain
9:09 PM 66.2 °F - 64.4 °F 94% 29.69 in 2.5 mi North 8.1 mph - 0.27 in Rain Rain
9:16 PM 66.2 °F - 64.4 °F 94% 29.69 in 8.0 mi NE 6.9 mph - 0.27 in Rain Light Rain
9:54 PM 66.0 °F - 64.0 °F 93% 29.65 in 10.0 mi NE 6.9 mph - 0.27 in   Scattered Clouds
10:54 PM 66.0 °F - 64.0 °F 93% 29.66 in 10.0 mi SSE 3.5 mph - N/A   Clear
11:43 PM 66.2 °F - 64.4 °F 94% 29.71 in 1.8 mi South 10.4 mph 20.7 mph 0.27 in Rain Heavy Rain
11:54 PM 64.9 °F - 63.0 °F 93% 29.69 in 2.0 mi South 5.8 mph - 0.33 in Rain Rain